K5BV Weather Reports


Display with metric or nautical units.
time (UTC)temp
F
wind
direction
speed
MPH
gust
MPH
rain 1hr
in
rain 24hr
in
rain mn
in
humidity
%
barometer
mb
20260507044234 78 0 0.0 0.0 0.00 0.00 0.00 97 1012.4
20260507043235 78 0 0.0 0.0 0.00 0.00 0.00 97 1012.2
20260507042234 78 0 0.0 0.0 0.00 0.00 0.00 97 1012.1
20260507041234 78 0 0.0 0.0 0.00 0.00 0.00 97 1012.1
20260507040235 79 0 0.0 0.0 0.00 0.00 0.00 97 1011.9
20260507035234 78 0 0.0 0.0 0.00 0.00 0.00 97 1011.9
20260507034234 78 0 0.0 0.0 0.00 0.00 0.00 97 1011.8
20260507033234 79 0 0.0 0.0 0.00 0.00 0.00 97 1011.5
20260507032236 79 0 0.0 0.0 0.00 0.00 0.00 96 1011.3
20260507031234 79 0 0.0 0.0 0.00 0.00 0.00 96 1011.2
20260507030234 79 0 0.0 0.0 0.00 0.00 0.00 96 1011.0
20260507025234 79 0 0.0 0.0 0.00 0.00 0.00 96 1011.0
20260507024233 79 0 0.0 0.0 0.00 0.00 0.00 96 1010.9
20260507023234 79 0 0.0 0.0 0.00 0.00 0.00 96 1010.8
20260507022233 79 0 0.0 0.0 0.00 0.00 0.00 96 1010.7
20260507021234 79 0 0.0 0.0 0.00 0.00 0.00 96 1010.6
20260507020234 79 0 0.0 0.0 0.00 0.00 0.00 96 1010.3
20260507015233 79 0 0.0 0.0 0.00 0.00 0.00 96 1010.2
20260507014236 79 0 0.0 0.0 0.00 0.00 0.00 95 1010.2
20260507013234 79 0 0.0 0.0 0.00 0.00 0.00 95 1010.0
20260507012241 79 0 0.0 0.0 0.00 0.00 0.00 95 1009.9
20260507011234 80 0 0.0 0.0 0.00 0.00 0.00 95 1009.6
20260507010439 80 0 0.0 0.0 0.00 0.00 0.00 94 1009.4
20260507005236 80 0 0.0 0.0 0.00 0.00 0.00 94 1009.2
20260507004234 80 0 0.0 0.0 0.00 0.00 0.00 93 1009.2
20260507003237 80 0 0.0 0.0 0.00 0.00 0.00 93 1009.2
20260507001236 81 0 0.0 0.0 0.00 0.00 0.00 92 1009.0
20260507000235 81 0 0.0 0.0 0.00 0.00 0.00 92 1008.8
20260506235234 81 0 0.0 0.0 0.00 0.00 0.00 92 1008.7
20260506234235 81 0 0.0 0.0 0.00 0.00 0.00 92 1008.7
20260506233235 81 0 0.0 0.0 0.00 0.00 0.00 92 1008.6
20260506232234 80 0 0.0 0.0 0.00 0.00 0.00 93 1008.5
20260506231235 80 0 0.0 0.0 0.00 0.00 0.00 93 1008.6
20260506230234 80 0 0.0 0.0 0.00 0.00 0.00 92 1008.6
20260506225234 81 0 0.0 0.0 0.00 0.00 0.00 92 1008.6
20260506224235 81 0 0.0 0.0 0.00 0.00 0.00 91 1008.5
20260506223234 81 0 0.0 0.0 0.00 0.00 0.00 90 1008.6
20260506222235 81 0 0.0 0.0 0.00 0.00 0.00 90 1008.5
20260506221235 82 0 0.0 0.0 0.00 0.00 0.00 88 1008.4
20260506220234 83 0 0.0 0.0 0.00 0.00 0.00 87 1008.5
20260506215235 84 0 0.0 0.0 0.00 0.00 0.00 85 1008.4
20260506214235 85 0 0.0 0.0 0.00 0.00 0.00 83 1008.4
20260506213234 85 0 0.0 0.0 0.00 0.00 0.00 83 1008.3
20260506212234 85 0 0.0 0.0 0.00 0.00 0.00 83 1008.3
20260506211234 84 0 0.0 0.0 0.00 0.00 0.00 84 1008.4
20260506210234 84 0 0.0 0.0 0.00 0.00 0.00 85 1008.5
20260506205235 84 0 0.0 0.0 0.00 0.00 0.00 85 1008.5
20260506204235 84 0 0.0 0.0 0.00 0.00 0.00 84 1008.8
20260506203234 84 0 0.0 0.0 0.00 0.00 0.00 85 1008.8
20260506202235 84 0 0.0 0.0 0.00 0.00 0.00 86 1009.0
20260506201235 84 0 0.0 0.0 0.00 0.00 0.00 85 1009.1
20260506200234 84 0 0.0 0.0 0.00 0.00 0.00 85 1009.2
20260506195234 84 0 0.0 0.0 0.00 0.00 0.00 86 1009.2
20260506194235 83 0 0.0 0.0 0.00 0.00 0.00 87 1009.3
20260506193234 83 0 0.0 0.0 0.00 0.00 0.00 88 1009.3
20260506192234 82 0 0.0 0.0 0.00 0.00 0.00 90 1009.6
20260506191236 82 0 0.0 0.0 0.00 0.00 0.00 91 1009.7
20260506190234 81 0 0.0 0.0 0.00 0.00 0.00 91 1009.8
20260506185234 81 0 0.0 0.0 0.00 0.00 0.00 91 1009.9
20260506184234 81 0 0.0 0.0 0.00 0.00 0.00 91 1009.9
20260506183235 81 0 0.0 0.0 0.00 0.00 0.00 90 1010.0
20260506182234 82 0 0.0 0.0 0.00 0.00 0.00 89 1010.2
20260506181234 82 0 0.0 0.0 0.00 0.00 0.00 89 1010.1
20260506180236 82 0 0.0 0.0 0.00 0.00 0.00 90 1010.0
20260506175234 82 0 0.0 0.0 0.00 0.00 0.00 92 1010.1
20260506174235 81 0 0.0 0.0 0.00 0.00 0.00 95 1010.2
20260506173234 80 0 0.0 0.0 0.00 0.00 0.00 96 1010.1
20260506172235 79 0 0.0 0.0 0.00 0.00 0.00 96 1010.3
20260506171235 78 0 0.0 0.0 0.00 0.00 0.00 97 1010.3
20260506170246 78 0 0.0 0.0 0.00 0.00 0.00 97 1010.2
20260506165234 78 0 0.0 0.0 0.00 0.00 0.00 97 1010.1
20260506164235 78 0 0.0 0.0 0.00 0.00 0.00 97 1010.1
20260506163234 78 0 0.0 0.0 0.00 0.00 0.00 97 1010.1
20260506162235 78 0 0.0 0.0 0.00 0.00 0.00 97 1009.9
20260506161234 78 0 0.0 0.0 0.00 0.00 0.00 98 1010.0
20260506160234 77 0 0.0 0.0 0.00 0.00 0.00 98 1009.8
20260506155234 77 0 0.0 0.0 0.00 0.00 0.00 98 1009.6
20260506154234 78 0 0.0 0.0 0.00 0.00 0.00 98 1009.4
20260506153234 78 0 0.0 0.0 0.00 0.00 0.00 97 1009.3
20260506152234 78 0 0.0 0.0 0.00 0.00 0.00 97 1009.3
20260506151234 78 0 0.0 0.0 0.00 0.00 0.00 97 1009.2
20260506150236 78 0 0.0 0.0 0.00 0.00 0.00 97 1009.3
20260506145234 78 0 0.0 0.0 0.00 0.00 0.00 97 1009.2
20260506144234 78 0 0.0 0.0 0.00 0.00 0.00 97 1009.2
20260506143234 78 0 0.0 0.0 0.00 0.00 0.00 97 1009.3
20260506142236 78 0 0.0 0.0 0.00 0.00 0.00 97 1009.2
20260506141237 78 0 0.0 0.0 0.00 0.00 0.00 97 1009.4
20260506140243 78 0 0.0 0.0 0.00 0.00 0.00 97 1009.1
20260506135236 78 0 0.0 0.0 0.00 0.00 0.00 97 1009.1
20260506134234 78 0 0.0 0.0 0.00 0.00 0.00 97 1009.0
20260506133234 78 0 0.0 0.0 0.00 0.00 0.00 97 1009.1
20260506131236 78 0 0.0 0.0 0.00 0.00 0.00 97 1009.1
20260506130237 77 0 0.0 0.0 0.00 0.00 0.00 97 1009.0
20260506125235 77 0 0.0 0.0 0.00 0.00 0.00 97 1009.0
20260506124235 77 0 0.0 0.0 0.00 0.00 0.00 97 1008.9
20260506123235 77 0 0.0 0.0 0.00 0.00 0.00 97 1008.8
20260506122235 77 0 0.0 0.0 0.00 0.00 0.00 97 1008.7
20260506121235 77 0 0.0 0.0 0.00 0.00 0.00 97 1008.7
20260506120235 78 0 0.0 0.0 0.00 0.00 0.00 97 1008.7
20260506115236 77 0 0.0 0.0 0.00 0.00 0.00 97 1008.6
20260506114235 77 0 0.0 0.0 0.00 0.00 0.00 97 1008.6
20260506113236 77 0 0.0 0.0 0.00 0.00 0.00 97 1008.5
20260506112235 77 0 0.0 0.0 0.00 0.00 0.00 97 1008.5
20260506111235 77 0 0.0 0.0 0.00 0.00 0.00 97 1008.5
20260506110235 77 0 0.0 0.0 0.00 0.00 0.00 97 1008.5
20260506105235 77 0 0.0 0.0 0.00 0.00 0.00 97 1008.6
20260506104235 77 0 0.0 0.0 0.00 0.00 0.00 97 1008.5
20260506103235 77 0 0.0 0.0 0.00 0.00 0.00 96 1008.6
20260506102235 77 0 0.0 0.0 0.00 0.00 0.00 96 1008.5
20260506101235 77 0 0.0 0.0 0.00 0.00 0.00 96 1008.5
20260506100235 77 0 0.0 0.0 0.00 0.00 0.00 96 1008.4
20260506095235 77 0 0.0 0.0 0.00 0.00 0.00 96 1008.3
20260506094235 77 0 0.0 0.0 0.00 0.00 0.00 96 1008.2
20260506093235 77 0 0.0 0.0 0.00 0.00 0.00 96 1008.1
20260506092235 77 0 0.0 0.0 0.00 0.00 0.00 96 1008.2
20260506091235 77 0 0.0 0.0 0.00 0.00 0.00 96 1008.1
20260506090235 77 0 0.0 0.0 0.00 0.00 0.00 96 1008.0
20260506085235 77 0 0.0 0.0 0.00 0.00 0.00 96 1008.1
20260506084235 77 0 0.0 0.0 0.00 0.00 0.00 96 1008.1
20260506083235 77 0 0.0 0.0 0.00 0.00 0.00 96 1008.1
20260506082235 77 0 0.0 0.0 0.00 0.00 0.00 97 1008.1
20260506081235 77 0 0.0 0.0 0.00 0.00 0.00 97 1008.0
20260506080235 77 0 0.0 0.0 0.00 0.00 0.00 97 1007.9
20260506073235 77 0 0.0 0.0 0.00 0.00 0.00 96 1008.1
20260506072235 77 0 0.0 0.0 0.00 0.00 0.00 96 1008.4
20260506071235 77 0 0.0 0.0 0.00 0.00 0.00 96 1008.6
20260506070236 77 0 0.0 0.0 0.00 0.00 0.00 96 1008.9
20260506062236 78 0 0.0 0.0 0.00 0.00 0.00 96 1009.2
20260506061235 78 0 0.0 0.0 0.00 0.00 0.00 96 1009.3
20260506060235 78 0 0.0 0.0 0.00 0.00 0.00 96 1009.2
20260506051235 78 0 0.0 0.0 0.00 0.00 0.00 97 1009.4
20260506050239 78 0 0.0 0.0 0.00 0.00 0.00 97 1009.3